This is the latest recevied weather packets stored in our database for station/object K7TUS-6. If no packets are shown the sender has not sent any weather packets the latest 10 day(s).
| Time | Temp. | Humidity | Pressure | Rain* | Wind** | Luminosity | Snow |
|---|---|---|---|---|---|---|---|
| 1777911605 | 9.44° C | 10% | 981.6 hPa | - | - | - | - |
| 1777911304 | 9.44° C | 15% | 981.9 hPa | - | - | - | - |
| 1777911003 | 9.44° C | 18% | 981.7 hPa | - | - | - | - |
| 1777910702 | 9.44° C | 19% | 982.3 hPa | - | - | - | - |
| 1777910408 | 9.44° C | 17% | 982.1 hPa | - | - | - | - |
| 1777910107 | 9.44° C | 19% | 981.5 hPa | - | - | - | - |
| 1777909806 | 9.44° C | 20% | 981.6 hPa | - | - | - | - |
| 1777909506 | 8.33° C | 12% | 981.6 hPa | - | - | - | - |
| 1777908905 | 7.78° C | 20% | 981.3 hPa | - | - | - | - |
| 1777908604 | 8.89° C | 19% | 981.2 hPa | - | - | - | - |
| 1777908303 | 8.33° C | 20% | 982.2 hPa | - | - | - | - |
| 1777908003 | 8.89° C | 20% | 981.6 hPa | - | - | - | - |
| 1777907702 | 8.33° C | 21% | 981.8 hPa | - | - | - | - |
| 1777907408 | 8.33° C | 24% | 982 hPa | - | - | - | - |
| 1777906807 | 7.78° C | 22% | 981.4 hPa | - | - | - | - |
| 1777906506 | 7.78° C | 25% | 982.2 hPa | - | - | - | - |
| 1777906206 | 7.78° C | 24% | 981.4 hPa | - | - | - | - |
| 1777905905 | 7.78° C | 22% | 981.2 hPa | - | - | - | - |
| 1777905304 | 7.78° C | 21% | 981.3 hPa | - | - | - | - |
| 1777905004 | 7.22° C | 23% | 980.6 hPa | - | - | - | - |
| 1777904703 | 6.11° C | 27% | 980.7 hPa | - | - | - | - |
| 1777903807 | 6.11° C | 27% | 981.7 hPa | - | - | - | - |
| 1777903507 | 6.67° C | 30% | 981.4 hPa | - | - | - | - |
| 1777903206 | 6.11° C | 28% | 981.4 hPa | - | - | - | - |
| 1777902905 | 6.11° C | 30% | 982 hPa | - | - | - | - |
* Rain since midnight (hover to see other rain measurements)
** Current wind speed in m/s (hover to see current wind gust speed)